Home > Time Zones > World Clock > Weather > Fiji > Nadi > Past weeks

Flag for Fiji Weather past 2 weeks in Nadi, Fiji

Now
66 °F

Passing clouds.


Feels Like: 66 °F
Forecast: 72 / 81 °F
Wind: 9 mph from Southeast

Location: Nandi

Current Time: Jul 31, 2015 at 4:59:54 AM

Latest Report: Jul 31, 2015 at 4:00 AM


Visibility: 31 mi

Pressure: 29.89 "Hg

Humidity: 83%

Dew point: 61 °F

Location of NadiLocation

Historic Weather in Nadi — Graph

°F

Nadi temperature yesterday

Maximum temperature yesterday: 84 °F (at 1:00 PM)
Minimum temperature yesterday: 61 °F (at 5:00 AM)
Average temperature yesterday: 72 °F

Past Weeks' High & Low Weather Summary

 TemperatureHumidityPressure
High84 °F (Jul 20, 4:00 PM)100% (Jul 26, 4:00 AM)30.15 "Hg (Jul 26, 4:00 AM)
Low61 °F (Jul 26, 4:00 AM)40% (Jul 26, 1:00 PM)29.86 "Hg (Jul 30, 2:00 PM)
Average72 °F74%30.02 "Hg
* Reported Jul 16 3:00 AM — Jul 31 3:00 AM, Nadi, Weather by CustomWeather, © 2015

Note: Actual official high and low records may vary slightly from our data, if they occured in-between our weather recording intervals... More about our weather records

Advertising

Nadi weather history for previous 24 hours

 ConditionsComfort  
Time TempWeatherWind HumidityBarometerVisibility
3:00 AM
Fri, Jul 31
66 °FPassing clouds.9 mph83%29.89 "HgN/A
2:00 AM68 °FPassing clouds.9 mph83%29.92 "HgN/A
1:00 AM68 °FPassing clouds.10 mph83%29.92 "HgN/A
12:00 AM68 °FPassing clouds.10 mph83%29.92 "HgN/A
11:00 PM
Thu, Jul 30
68 °FPassing clouds.9 mph83%29.95 "HgN/A
10:00 PM70 °FPassing clouds.8 mph78%29.95 "HgN/A
9:00 PM70 °FPassing clouds.9 mph78%29.95 "HgN/A
8:00 PM72 °FPassing clouds.9 mph78%29.92 "HgN/A
7:00 PM73 °FPassing clouds.12 mph69%29.92 "HgN/A
6:00 PM75 °FPassing clouds.7 mph69%29.89 "HgN/A
5:00 PM77 °FScattered clouds.8 mph65%29.89 "HgN/A
4:00 PM79 °FScattered clouds.12 mph61%29.86 "HgN/A
3:00 PM81 °FScattered clouds.12 mph58%29.86 "HgN/A
2:00 PM82 °FScattered clouds.14 mph55%29.86 "HgN/A
1:00 PM84 °FScattered clouds.10 mph45%29.89 "HgN/A
12:00 PM81 °FPassing clouds.9 mph51%29.92 "HgN/A
11:00 AM81 °FPassing clouds.12 mph51%29.92 "HgN/A
10:00 AM77 °FPassing clouds.13 mph57%29.95 "HgN/A
9:00 AM75 °FScattered clouds.7 mph69%29.95 "HgN/A
8:00 AM66 °FPartly sunny.7 mph83%29.92 "HgN/A
7:00 AM63 °FScattered clouds.5 mph83%29.92 "HgN/A
6:00 AM64 °FPassing clouds.8 mph83%29.89 "HgN/A
5:00 AM61 °FPassing clouds.7 mph94%29.92 "HgN/A
4:00 AM63 °FPassing clouds.6 mph88%29.92 "HgN/A
Weather by CustomWeather, © 2015

See weather overviewHow to use our weather pages